Tracking 17694 objects as of 27-May-2016
HD Live streaming from Space Station
objects crossing your sky now

AZUR (GRS A)


10-day predictions
AZUR (GRS A) is classified as:


NORAD ID: 4221
Int'l Code: 1969-097A
Perigee: 364.2 km
Apogee: 1,305.6 km
Inclination: 102.7 °
Period: 101.5 minutes
Semi major axis: 7205 km
RCS: 0.3339 m2 (medium)
Launch date: November 8, 1969
Source: Germany (GER)
Launch site: AIR FORCE WESTERN TEST RANGE (AFWTR)
Your satellite tracking list
Your tracking list is empty





NASA's NSSDC Master Catalog

Two Line Element Set (TLE):
1  4221U 69097A   16147.95999479 +.00004436 +00000-0 +21694-3 0  9992
2  4221 102.6910 195.7623 0653240 012.0033 349.5885 14.19292471194345
Source of the keplerian elements: AFSPC

N2YO: 486